Regional Weather Roundup
Issued by NWS

Home | Current Version | Previous Version | Graphics & Text | Print | Product List | Glossary On
Versions: 1 2 3 4 5 6 7 8 9 10 11 12 13 14 15 16 17 18 19 20 21 22 23 24 25 26 27 28 29 30 31 32 33 34 35 36 37 38 39 40 41 42 43 44 45 46 47 48 49 50
000
ASUS43 KOAX 100902
RWRNE

WEATHER ROUNDUP FOR NEBRASKA
NATIONAL WEATHER SERVICE OMAHA NE
300 AM CST SAT DEC 10 2016

NOTES: SATELLITE DATA IS BEING USED TO AUGMENT CLOUD COVER ABOVE
       12000 FEET.
       "FAIR" INDICATES FEW OR NO CLOUDS BELOW 12,000 FEET WITH NO
       SIGNIFICANT WEATHER AND/OR OBSTRUCTIONS TO VISIBILITY.

  * THESE STATIONS DO NOT REPORT WEATHER SUCH AS RAIN...SNOW OR FOG.

NEZ001>004-019>022-054>056-101000-
NEBRASKA PANHANDLE

CITY           SKY/WX    TMP DP  RH WIND       PRES   REMARKS
SCOTTSBLUFF    CLOUDY    14   7  73 E16       30.04F WCI  -2
ALLIANCE       CLOUDY    11   7  84 SE9       30.09F WCI  -2
CHADRON        CLOUDY    10   2  69 E3        30.14F
KIMBALL        CLOUDY    19  15  86 SW5       30.02F WCI  12
SIDNEY         CLOUDY    20  16  84 SE7       30.08S WCI  11
$$

NEZ057>060-069>072-079>082-101000-
SOUTHWEST NEBRASKA

CITY           SKY/WX    TMP DP  RH WIND       PRES   REMARKS
NORTH PLATTE   CLOUDY    18  12  77 E8        30.23F WCI   8
IMPERIAL       CLOUDY    18  13  80 E9        30.14F WCI   7
LEXINGTON      CLOUDY    18  13  79 SE8       30.27F WCI   8
MCCOOK         CLOUDY    18  13  80 E6        30.22F WCI  10
OGALLALA       CLOUDY    18  13  82 E9        30.14F WCI   6
$$

NEZ005>010-023>029-035>040-094-101000-
NORTH CENTRAL NEBRASKA

CITY           SKY/WX    TMP DP  RH WIND       PRES   REMARKS
VALENTINE      LGT SNOW   7   1  78 E8        30.30F FOG     WCI  -6
AINSWORTH      LGT SNOW   9   6  90 E6        30.31R WCI  -1
BROKEN BOW     CLOUDY    21  13  71 SE7       30.28F WCI  12
O`NEILL        LGT SNOW  11   8  89 NE7       30.38F WCI   0
ORD            CLOUDY    17  11  77 E6        30.36R WCI   9
THEDFORD       LGT SNOW  11   8  87 E6        30.26F WCI   2
$$

NEZ041-046>049-061>064-073>077-083>087-101000-
SOUTH CENTRAL NEBRASKA

CITY           SKY/WX    TMP DP  RH WIND       PRES   REMARKS
GRAND ISLAND   CLOUDY    20  15  81 SE7       30.38R WCI  11
AURORA         CLOUDY    20  15  80 SE5       30.38R WCI  13
HASTINGS       CLOUDY    19  13  77 SE7       30.37R WCI  10
HEBRON         CLOUDY    17  14  86 CALM      30.41S
HOLDREGE       CLOUDY    19  14  79 SE7       30.29F WCI  10
KEARNEY *      CLOUDY    19  12  73 SE8       30.33S WCI   9
YORK           CLOUDY    19  16  86 CALM      30.41R
$$

NEZ011>018-030>034-042>045-101000-
NORTHEAST NEBRASKA

CITY           SKY/WX    TMP DP  RH WIND       PRES   REMARKS
NORFOLK        CLOUDY    15  11  83 CALM      30.42R
ALBION         CLOUDY    17  13  83 E7        30.39S WCI   8
BLAIR          CLOUDY    23  15  72 SE3       30.44S
FREMONT        CLOUDY    22  15  72 CALM      30.45S
TEKAMAH        CLOUDY    20  13  74 N6        30.47F WCI  12
WAYNE          CLOUDY    12  10  91 CALM      30.44S
$$

NEZ050>053-065>068-078-088>093-101000-
SOUTHEAST NEBRASKA

CITY           SKY/WX    TMP DP  RH WIND       PRES   REMARKS
LINCOLN        PTCLDY    22  15  75 SE3       30.46R
OMAHA EPPLEY   CLOUDY    23  13  65 SE5       30.47F WCI  17
BEATRICE       CLOUDY    20  15  81 CALM      30.42F
FALLS CITY     CLOUDY    26  16  65 SE6       30.46F WCI  19
NEBRASKA CITY  CLOUDY    24  12  60 CALM      30.46R
PLATTSMOUTH    CLOUDY    23  13  67 E5        30.45F WCI  17
$$

NEZ044-045-051>053-067-101000-
OMAHA AREA

CITY           SKY/WX    TMP DP  RH WIND       PRES   REMARKS
OMAHA EPPLEY   CLOUDY    23  13  65 SE5       30.47F WCI  17
BLAIR          CLOUDY    23  15  72 SE3       30.44S
FREMONT        CLOUDY    22  15  72 CALM      30.45S
MILLARD        CLOUDY    25  16  68 CALM      30.46F
OFFUTT AFB     CLOUDY    23  15  74 E5        30.46F WCI  16
PLATTSMOUTH    CLOUDY    23  13  67 E5        30.45F WCI  17
WAHOO          PTSUNNY   22  15  76 SE3       30.45S
$$



USA.gov is the U.S. government's official web portal to all federal, state and local government web resources and services.